Regional Weather Roundup
Issued by NWS Charleston, SC

Current Version | Previous Version | Graphics & Text | Print | Product List | Glossary On
Versions: 1 2 3 4 5 6 7 8 9 10 11 12 13 14 15 16 17 18 19 20 21 22 23 24 25 26 27 28 29 30 31 32 33 34 35 36 37 38 39 40 41 42 43 44 45 46 47 48 49 50
000
ASUS42 KCHS 201810
RWRCHS
REGIONAL WEATHER ROUNDUP
NATIONAL WEATHER SERVICE CHARLESTON SC
200 PM EDT WED AUG 20 2014

NOTE: "FAIR" INDICATES FEW OR NO CLOUDS BELOW 12,000 FEET WITH NO
SIGNIFICANT WEATHER AND/OR OBSTRUCTIONS TO VISIBILITY.

NOT ALL STATIONS ARE QUALITY CONTROLLED BY THE NATIONAL
WEATHER SERVICE. USE DATA WITH CAUTION...ESPECIALLY
DEWPOINT OBSERVATIONS.

SCZ027-030-031-034>040-042>050-201900-
...SOUTH CAROLINA...

CITY           SKY/WX    TMP DP  RH WIND       PRES   REMARKS
N CHARLESTON   MOSUNNY   91  71  51 W12       29.99S HX  97
6HR MIN TEMP:  77; 6HR MAX TEMP:  94;

WATERFRONT PRK   N/A     90 N/A N/A SW7G14      N/A
FORT JOHNSON   NOT AVBL
MOUNT PLEASANT FAIR      91  73  55 CALM      29.99S HX 100
JOHNS ISLAND   MOCLDY    90  79  70 SW8       30.00R HX 105
PINOPOLIS        N/A     90  75  62 NE3       29.93R HX 100
MONCKS CORNER    N/A     91  79  66 W3        29.99F HX 107
SUMMERVILLE    FAIR      91  75  59 W9        30.00S HX 102
BEAUFORT MCAS  PTSUNNY   91  73  55 W12G20    30.00S HX  99
BEAUFORT ARPT  FAIR      91  73  55 SW13      30.00S HX 100
HILTON HEAD IS SUNNY     90  72  55 SW9       30.02S HX  96
GEORGETOWN     NOT AVBL
WALTERBORO     PTCLDY    93  66  40 NW9G16    30.01S HX  96
ORANGEBURG     MOSUNNY   91  72  53 VRB3      30.00F HX  98
6HR MIN TEMP:  74; 6HR MAX TEMP:  92;

BARNWELL       CLOUDY    91  72  52 SW7       30.01F HX  98
AIKEN          FAIR      91  72  52 SW6       30.05S HX  98
MANNING        FAIR      91  77  62 SW5       29.99F HX 105
KINGSTREE      NOT AVBL
COLUMBIA       MOSUNNY   94  69  44 VRB5      29.99F HX  99
6HR MIN TEMP:  74; 6HR MAX TEMP:  94;

SUMTER         SUNNY     91  73  54 VRB5      29.98F HX  99
6HR MIN TEMP:  75; 6HR MAX TEMP:  91;

FLORENCE       MOSUNNY   90  69  50 VRB3      29.98F HX  94
6HR MIN TEMP:  74; 6HR MAX TEMP:  91;

MYRTLE BEACH   PTSUNNY   88  75  66 S10       29.99S HX  97
N MYRTLE BEACH SUNNY     85  76  74 SW9       29.97F HX  94
6HR MIN TEMP:  76; 6HR MAX TEMP:  85;


$$

GAZ063-065-086>088-099>101-113>116-118-119-134-136>141-150-201900-
...GEORGIA...

CITY           SKY/WX    TMP DP  RH WIND       PRES   REMARKS
SAVANNAH ARPT  MOSUNNY   93  72  50 W12G20    30.01F HX 101
6HR MIN TEMP:  74; 6HR MAX TEMP:  93;

HUNTER AAF     MOSUNNY   92  74  55 W12       30.00S HX 102
6HR MIN TEMP:  76; 6HR MAX TEMP:  92;

FORT STEWART   MOSUNNY   92  73  53 W8        30.01F HX 101
6HR MIN TEMP:  76; 6HR MAX TEMP:  92;

STATESBORO     NOT AVBL
SYLVANIA       PTCLDY    92  76  58 NW7       30.03S HX 105
CLAXTON        FAIR      91  75  59 NW9       30.02S HX 102
THOMSON        MOSUNNY   95  77  56 CALM      30.06F HX 110
AUGUSTA-BUSH   MOSUNNY   94  68  42 W10       30.00F HX  98
6HR MIN TEMP:  74; 6HR MAX TEMP:  94;

AUGUSTA-DANIEL SUNNY     92  68  45 W5        30.03S HX  96
SWAINSBORO     FAIR      95  73  49 W7G17     30.04S HX 105
VIDALIA          N/A     91  73  55 NW7       30.04S HX 100
ALMA           MOSUNNY   91  73  55 W9        30.05S HX  99
6HR MIN TEMP:  72; 6HR MAX TEMP:  92;

WAYCROSS       SUNNY     95  77  56 W6        30.05S HX 110
JESUP            N/A     95  77  55 W9        30.03F HX 109
BRUNSWICK      MOSUNNY   91  70  49 W6        30.04S HX  97
SAINT SIMONS   MOSUNNY   92  71  50 W7        30.03F HX  98
6HR MIN TEMP:  76; 6HR MAX TEMP:  92;


$$

SCZ027-028-034-036>038-045-046-048>050-GAZ119-141-201900-
...LAKE AND SUPPLEMENTAL COASTAL OBSERVATIONS...

STATION/POSITION TIME  TEMP    WIND        PRES    WAVE   SWELL
                       AIR SEA DIR/SP/G            HT/PER HT/PER/DIR
                 (UTC) (F)     (DEG/KT/KT) (MB)    (FT/S) (FT/S/D)
UPR LAKE MARION  NOT AVBL
WINYAH BAY       1700   84     120/  9     1015.0S
LAKE MURRAY      1700   85     210/  6/  6 1015.2F
ACE BASIN NERRS  1700   89     260/  3     1016.0S
FORT PULASKI     1800   88     280/ 11/ 14 1016.5S
SAPELO ISLAND    1700   91     280/  7     1018.0S

$$

ANZ835-935-AMZ111-154-330-350-352-354-374-450-454-472-201900-
...C-MAN AND BUOY OBSERVATIONS...

STATION/POSITION TIME  TEMP    WIND        PRES    WAVE   SWELL
                       AIR SEA DIR/SP/G            HT/PER HT/PER/DIR
                 (UTC) (F)     (DEG/KT/KT) (MB)    (FT/S) (FT/S/D)
FOLLY BEACH CMAN 1700   84     200/ 10/ 12 1016.2F
BUOY 41004       1800   82 84  230/ 10/ 12 1015.5F   3/ 6   2/ 6
BUOY 41008       1800   85 85  230/ 10/ 10 1016.9F   2/ 8   2/110/ 8
5E ST. MARYS GA  1700      83                N/A     1/ 8
FRYING PAN BUOY  NOT AVBL
BUOY 41025       1800   78     310/  8/ 10 1014.4    2/ 7   2/170/ 7
CAPE LOOKOUT NC  1700   81      90/  5/  6 1015.1S
BUOY 41002       1705   79 81  250/ 12/ 14 1017.5    6/ 7   5/280/ 7
BUOY 41010       1800   85 86  240/ 10/ 12 1018.8F   2/ 4   2/130/ 8
BUOY 41012       NOT AVBL
ST AUGUSTINE FL  1800   91     280/  7/ 10 1018.6F
CAPERS NEARSHORE 1700   85     210/ 10/ 10   N/A
FRIPP NEARSHORE  NOT AVBL


$$


USA.gov is the U.S. government's official web portal to all federal, state and local government web resources and services.